^^
Daily Summary for January 27, 2021 Units:  English    Metric   Both
Daily Weekly Monthly Yearly Custom
  High: Low: Average:
Temperature: 44.0 °F 36.0 °F 39.9 °F
Dew Point: 41.0 °F 32.0 °F 36.7 °F
Humidity: 93% 80% 89%
Wind Speed: 44mph 0mph 19.4mph
Wind Gust: 44mph - -
Wind- - ENE
Pressure: 30.0 in 29.8 in -
Precipitation: 1.200 in    
Historical Graphs
 
 
Tabular Data for January 27, 2021
Time Temperature Dew Point Pressure Wind Wind Speed Wind Gust Humidity Rainfall Rate (Hourly) solar
00:04 36.0 °F 32.0 °F 29.8 in North 25 mph 28 mph 88% 0.020 in 0.00 W/m2
00:09 36.0 °F 32.0 °F 29.8 in North 23 mph 25 mph 88% 0.020 in 0.00 W/m2
00:14 36.0 °F 33.0 °F 29.8 in NNE 27 mph 23 mph 88% 0.020 in 0.00 W/m2
00:19 36.0 °F 33.0 °F 29.8 in NNE 25 mph 26 mph 88% 0.010 in 0.00 W/m2
00:24 36.0 °F 33.0 °F 29.8 in NE 27 mph 25 mph 88% 0.010 in 0.00 W/m2
00:29 36.0 °F 33.0 °F 29.8 in North 30 mph 26 mph 88% 0.010 in 0.00 W/m2
00:34 36.0 °F 33.0 °F 29.8 in North 30 mph 30 mph 88% 0.020 in 0.00 W/m2
00:39 37.0 °F 34.0 °F 29.8 in North 18 mph 20 mph 89% 0.020 in 0.00 W/m2
00:44 37.0 °F 34.0 °F 29.8 in NNE 27 mph 17 mph 89% 0.030 in 0.00 W/m2
00:49 37.0 °F 34.0 °F 29.8 in NNE 30 mph 26 mph 89% 0.040 in 0.00 W/m2
00:54 37.0 °F 34.0 °F 29.8 in NE 9 mph 30 mph 89% 0.040 in 0.00 W/m2
00:59 37.0 °F 34.0 °F 29.8 in NE 18 mph 9 mph 89% 0.040 in 0.00 W/m2
01:04 37.0 °F 35.0 °F 29.8 in ENE 32 mph 17 mph 90% 0.040 in 0.00 W/m2
01:09 38.0 °F 35.0 °F 29.8 in NE 25 mph 31 mph 90% 0.050 in 0.00 W/m2
01:14 38.0 °F 35.0 °F 29.8 in NNE 28 mph 15 mph 89% 0.050 in 0.00 W/m2
01:19 38.0 °F 35.0 °F 29.8 in NNE 20 mph 28 mph 89% 0.060 in 0.00 W/m2
01:24 38.0 °F 35.0 °F 29.8 in North 33 mph 21 mph 89% 0.070 in 0.00 W/m2
01:29 38.0 °F 35.0 °F 29.8 in NE 20 mph 33 mph 89% 0.070 in 0.00 W/m2
01:34 38.0 °F 35.0 °F 29.8 in NNE 32 mph 20 mph 89% 0.080 in 0.00 W/m2
01:39 38.0 °F 35.0 °F 29.8 in NW 30 mph 31 mph 89% 0.080 in 0.00 W/m2
01:44 38.0 °F 35.0 °F 29.8 in East 27 mph 30 mph 89% 0.090 in 0.00 W/m2
01:49 38.0 °F 35.0 °F 29.8 in NNE 27 mph 26 mph 89% 0.090 in 0.00 W/m2
01:54 38.0 °F 35.0 °F 29.8 in NE 25 mph 21 mph 89% 0.090 in 0.00 W/m2
01:59 38.0 °F 35.0 °F 29.8 in ENE 32 mph 25 mph 89% 0.100 in 0.00 W/m2
02:04 38.0 °F 35.0 °F 29.8 in NE 25 mph 31 mph 89% 0.110 in 0.00 W/m2
02:09 38.0 °F 35.0 °F 29.8 in ENE 16 mph 25 mph 89% 0.110 in 0.00 W/m2
02:13 38.0 °F 35.0 °F 29.8 in NNE 26 mph 16 mph 89% 0.130 in 0.00 W/m2
02:19 38.0 °F 35.0 °F 29.8 in NE 33 mph 37 mph 89% 0.140 in 0.00 W/m2
02:24 38.0 °F 35.0 °F 29.8 in ENE 32 mph 20 mph 89% 0.150 in 0.00 W/m2
02:29 37.0 °F 35.0 °F 29.8 in NE 27 mph 31 mph 89% 0.150 in 0.00 W/m2
02:34 37.0 °F 35.0 °F 29.8 in NE 25 mph 26 mph 90% 0.150 in 0.00 W/m2
02:39 37.0 °F 35.0 °F 29.8 in NNE 24 mph 25 mph 90% 0.150 in 0.00 W/m2
02:44 37.0 °F 35.0 °F 29.8 in ENE 16 mph 13 mph 90% 0.150 in 0.00 W/m2
02:49 37.0 °F 35.0 °F 29.9 in NNE 19 mph 16 mph 90% 0.150 in 0.00 W/m2
02:54 37.0 °F 35.0 °F 29.9 in NNW 37 mph 20 mph 90% 0.150 in 0.00 W/m2
02:59 37.0 °F 35.0 °F 29.8 in NNE 20 mph 37 mph 90% 0.140 in 0.00 W/m2
03:04 37.0 °F 35.0 °F 29.9 in NNW 20 mph 20 mph 90% 0.140 in 0.00 W/m2
03:09 37.0 °F 35.0 °F 29.9 in ENE 26 mph 20 mph 90% 0.140 in 0.00 W/m2
03:14 37.0 °F 35.0 °F 29.9 in NE 27 mph 26 mph 90% 0.130 in 0.00 W/m2
03:19 37.0 °F 35.0 °F 29.9 in NE 18 mph 20 mph 90% 0.130 in 0.00 W/m2
03:24 37.0 °F 35.0 °F 29.9 in North 17 mph 17 mph 90% 0.130 in 0.00 W/m2
03:29 37.0 °F 35.0 °F 29.9 in NE 28 mph 15 mph 90% 0.130 in 0.00 W/m2
03:34 37.0 °F 34.0 °F 29.9 in NE 21 mph 28 mph 90% 0.140 in 0.00 W/m2
03:39 37.0 °F 35.0 °F 29.9 in NE 44 mph 28 mph 91% 0.140 in 0.00 W/m2
03:44 37.0 °F 35.0 °F 29.9 in NE 28 mph 44 mph 91% 0.130 in 0.00 W/m2
03:49 37.0 °F 35.0 °F 29.9 in North 17 mph 28 mph 91% 0.120 in 0.00 W/m2
03:53 37.0 °F 35.0 °F 29.8 in NE 18 mph 13 mph 91% 0.110 in 0.00 W/m2
03:59 37.0 °F 35.0 °F 29.9 in ENE 35 mph 24 mph 91% 0.110 in 0.00 W/m2
04:04 37.0 °F 35.0 °F 29.9 in NE 35 mph 35 mph 91% 0.100 in 0.00 W/m2
04:09 37.0 °F 35.0 °F 29.9 in NNE 20 mph 28 mph 91% 0.090 in 0.00 W/m2
04:14 37.0 °F 35.0 °F 29.9 in NE 35 mph 21 mph 91% 0.070 in 0.00 W/m2
04:19 37.0 °F 35.0 °F 29.9 in ENE 35 mph 35 mph 91% 0.060 in 0.00 W/m2
04:24 37.0 °F 35.0 °F 29.9 in NE 32 mph 26 mph 90% 0.040 in 0.00 W/m2
04:29 37.0 °F 35.0 °F 29.9 in ENE 25 mph 31 mph 90% 0.030 in 0.00 W/m2
04:34 37.0 °F 35.0 °F 29.9 in North 30 mph 25 mph 90% 0.010 in 0.00 W/m2
04:39 37.0 °F 35.0 °F 29.9 in North 25 mph 30 mph 91% 0.010 in 0.00 W/m2
04:44 38.0 °F 35.0 °F 29.9 in NNE 23 mph 25 mph 90% 0.000 in 0.00 W/m2
04:49 38.0 °F 35.0 °F 29.9 in NNE 35 mph 23 mph 90% 0.000 in 0.00 W/m2
04:54 38.0 °F 35.0 °F 29.9 in NNW 32 mph 35 mph 90% 0.000 in 0.00 W/m2
04:59 38.0 °F 35.0 °F 29.9 in East 23 mph 31 mph 90% 0.000 in 0.00 W/m2
05:04 38.0 °F 35.0 °F 29.9 in NE 40 mph 23 mph 90% 0.000 in 0.00 W/m2
05:09 38.0 °F 35.0 °F 29.9 in NE 20 mph 40 mph 90% 0.000 in 0.00 W/m2
05:14 38.0 °F 35.0 °F 29.9 in ENE 39 mph 28 mph 90% 0.000 in 0.00 W/m2
05:19 38.0 °F 35.0 °F 29.9 in NNE 27 mph 39 mph 90% 0.000 in 0.00 W/m2
05:24 38.0 °F 35.0 °F 29.9 in NNE 23 mph 25 mph 90% 0.000 in 0.00 W/m2
05:29 38.0 °F 35.0 °F 29.9 in NE 25 mph 25 mph 90% 0.000 in 0.00 W/m2
05:34 38.0 °F 35.0 °F 29.9 in NE 28 mph 15 mph 90% 0.000 in 0.00 W/m2
05:39 38.0 °F 35.0 °F 29.9 in NE 27 mph 28 mph 90% 0.010 in 0.00 W/m2
05:44 38.0 °F 35.0 °F 29.9 in NE 40 mph 26 mph 90% 0.010 in 0.00 W/m2
05:49 38.0 °F 35.0 °F 29.9 in NE 40 mph 40 mph 90% 0.010 in 0.00 W/m2
05:54 38.0 °F 35.0 °F 29.9 in East 16 mph 26 mph 90% 0.010 in 0.00 W/m2
05:59 38.0 °F 35.0 °F 29.9 in East 11 mph 16 mph 90% 0.010 in 0.00 W/m2
06:04 38.0 °F 35.0 °F 29.9 in North 25 mph 16 mph 90% 0.010 in 0.00 W/m2
06:09 38.0 °F 35.0 °F 29.9 in ENE 25 mph 25 mph 90% 0.010 in 0.00 W/m2
06:14 38.0 °F 35.0 °F 29.9 in NE 21 mph 21 mph 90% 0.010 in 0.00 W/m2
06:19 38.0 °F 35.0 °F 29.9 in ENE 13 mph 21 mph 90% 0.010 in 0.00 W/m2
06:24 38.0 °F 35.0 °F 29.9 in ENE 9 mph 13 mph 90% 0.010 in 0.00 W/m2
06:29 38.0 °F 35.0 °F 29.9 in North 28 mph 13 mph 90% 0.010 in 0.00 W/m2
06:34 38.0 °F 35.0 °F 29.9 in NE 12 mph 28 mph 90% 0.010 in 0.00 W/m2
06:39 38.0 °F 35.0 °F 29.9 in NE 23 mph 13 mph 90% 0.000 in 0.00 W/m2
06:44 38.0 °F 35.0 °F 29.9 in NNE 20 mph 23 mph 90% 0.000 in 0.00 W/m2
06:49 38.0 °F 35.0 °F 29.9 in NE 16 mph 20 mph 89% 0.000 in 0.00 W/m2
06:54 38.0 °F 35.0 °F 29.9 in North 32 mph 16 mph 89% 0.000 in 0.00 W/m2
06:59 38.0 °F 35.0 °F 29.9 in NE 26 mph 31 mph 89% 0.000 in 0.00 W/m2
07:04 38.0 °F 35.0 °F 29.9 in NE 27 mph 26 mph 89% 0.000 in 0.00 W/m2
07:09 38.0 °F 35.0 °F 29.9 in NNE 30 mph 25 mph 89% 0.000 in 0.00 W/m2
07:14 38.0 °F 35.0 °F 29.9 in NNE 23 mph 30 mph 89% 0.000 in 0.00 W/m2
07:19 38.0 °F 35.0 °F 29.9 in North 18 mph 23 mph 89% 0.000 in 0.00 W/m2
07:29 38.0 °F 35.0 °F 29.9 in NE 35 mph 11 mph 89% 0.000 in 0.00 W/m2
07:34 38.0 °F 35.0 °F 29.9 in North 25 mph 35 mph 89% 0.000 in 0.00 W/m2
07:39 39.0 °F 35.0 °F 29.9 in NNE 21 mph 25 mph 88% 0.000 in 0.00 W/m2
07:44 39.0 °F 35.0 °F 29.9 in NNE 32 mph 16 mph 88% 0.000 in 5.00 W/m2
07:49 39.0 °F 35.0 °F 30.0 in North 31 mph 31 mph 88% 0.000 in 5.00 W/m2
07:54 39.0 °F 35.0 °F 30.0 in NNE 23 mph 23 mph 88% 0.000 in 5.00 W/m2
07:59 39.0 °F 36.0 °F 30.0 in North 25 mph 20 mph 88% 0.000 in 5.00 W/m2
08:04 39.0 °F 36.0 °F 30.0 in NNE 16 mph 25 mph 88% 0.000 in 5.00 W/m2
08:09 39.0 °F 36.0 °F 30.0 in ENE 21 mph 16 mph 88% 0.000 in 5.00 W/m2
08:14 39.0 °F 35.0 °F 30.0 in NNE 23 mph 21 mph 87% 0.000 in 11.00 W/m2
08:19 39.0 °F 35.0 °F 30.0 in North 11 mph 23 mph 87% 0.000 in 12.00 W/m2
08:24 39.0 °F 35.0 °F 30.0 in NNE 14 mph 10 mph 87% 0.000 in 11.00 W/m2
08:29 39.0 °F 35.0 °F 30.0 in ENE 18 mph 14 mph 87% 0.000 in 12.00 W/m2
08:34 39.0 °F 36.0 °F 30.0 in NNE 19 mph 17 mph 87% 0.000 in 26.00 W/m2
08:39 39.0 °F 36.0 °F 30.0 in NNE 21 mph 20 mph 87% 0.000 in 21.00 W/m2
08:44 39.0 °F 36.0 °F 30.0 in NNE 28 mph 21 mph 87% 0.000 in 32.00 W/m2
08:49 39.0 °F 36.0 °F 30.0 in NNE 25 mph 28 mph 87% 0.000 in 33.00 W/m2
08:54 39.0 °F 36.0 °F 30.0 in North 20 mph 25 mph 87% 0.000 in 37.00 W/m2
08:59 39.0 °F 36.0 °F 30.0 in North 23 mph 20 mph 86% 0.000 in 47.00 W/m2
09:04 40.0 °F 36.0 °F 30.0 in NNE 17 mph 23 mph 86% 0.000 in 74.00 W/m2
09:09 40.0 °F 36.0 °F 30.0 in North 16 mph 13 mph 86% 0.000 in 72.00 W/m2
09:14 40.0 °F 36.0 °F 30.0 in NNE 16 mph 16 mph 86% 0.000 in 69.00 W/m2
09:19 40.0 °F 36.0 °F 30.0 in North 23 mph 16 mph 86% 0.000 in 37.00 W/m2
09:24 40.0 °F 36.0 °F 30.0 in NE 27 mph 23 mph 86% 0.000 in 30.00 W/m2
09:29 40.0 °F 36.0 °F 30.0 in NE 20 mph 26 mph 85% 0.000 in 33.00 W/m2
09:34 40.0 °F 36.0 °F 30.0 in North 10 mph 20 mph 85% 0.000 in 44.00 W/m2
09:39 40.0 °F 36.0 °F 30.0 in North 25 mph 13 mph 86% 0.000 in 63.00 W/m2
09:44 40.0 °F 37.0 °F 30.0 in North 12 mph 25 mph 86% 0.000 in 72.00 W/m2
09:49 41.0 °F 37.0 °F 30.0 in East 16 mph 9 mph 86% 0.000 in 63.00 W/m2
09:54 41.0 °F 37.0 °F 30.0 in East 21 mph 16 mph 86% 0.000 in 70.00 W/m2
09:59 41.0 °F 37.0 °F 30.0 in ENE 23 mph 23 mph 85% 0.000 in 65.00 W/m2
10:04 41.0 °F 37.0 °F 30.0 in NNE 20 mph 13 mph 85% 0.000 in 81.00 W/m2
10:09 41.0 °F 37.0 °F 30.0 in North 32 mph 20 mph 85% 0.000 in 91.00 W/m2
10:14 42.0 °F 37.0 °F 30.0 in NNE 13 mph 31 mph 85% 0.000 in 83.00 W/m2
10:19 42.0 °F 37.0 °F 30.0 in NE 18 mph 10 mph 85% 0.000 in 88.00 W/m2
10:24 42.0 °F 37.0 °F 30.0 in NNE 23 mph 17 mph 85% 0.000 in 97.00 W/m2
10:29 42.0 °F 37.0 °F 30.0 in NE 18 mph 23 mph 84% 0.000 in 116.00 W/m2
10:34 42.0 °F 38.0 °F 30.0 in NNE 18 mph 17 mph 84% 0.000 in 151.00 W/m2
10:39 42.0 °F 38.0 °F 30.0 in NNE 16 mph 17 mph 84% 0.000 in 137.00 W/m2
10:44 43.0 °F 38.0 °F 30.0 in NNE 11 mph 16 mph 84% 0.000 in 125.00 W/m2
10:49 43.0 °F 38.0 °F 30.0 in NE 18 mph 13 mph 83% 0.000 in 114.00 W/m2
10:54 43.0 °F 38.0 °F 30.0 in NNW 32 mph 17 mph 83% 0.000 in 123.00 W/m2
10:59 43.0 °F 38.0 °F 30.0 in North 20 mph 31 mph 83% 0.000 in 123.00 W/m2
11:04 43.0 °F 38.0 °F 30.0 in NNW 17 mph 20 mph 83% 0.000 in 127.00 W/m2
11:09 43.0 °F 38.0 °F 30.0 in NE 18 mph 11 mph 82% 0.000 in 135.00 W/m2
11:14 43.0 °F 38.0 °F 30.0 in NNE 11 mph 17 mph 82% 0.000 in 134.00 W/m2
11:19 44.0 °F 38.0 °F 30.0 in NNE 21 mph 12 mph 82% 0.000 in 139.00 W/m2
11:24 44.0 °F 38.0 °F 30.0 in NE 12 mph 21 mph 81% 0.000 in 130.00 W/m2
11:29 44.0 °F 39.0 °F 30.0 in NNE 23 mph 22 mph 82% 0.000 in 111.00 W/m2
11:34 44.0 °F 38.0 °F 30.0 in NNE 11 mph 23 mph 81% 0.000 in 102.00 W/m2
11:39 44.0 °F 38.0 °F 30.0 in ENE 16 mph 12 mph 81% 0.000 in 105.00 W/m2
11:44 44.0 °F 38.0 °F 30.0 in NNE 13 mph 16 mph 81% 0.000 in 90.00 W/m2
11:49 44.0 °F 38.0 °F 30.0 in East 13 mph 13 mph 81% 0.000 in 86.00 W/m2
11:54 44.0 °F 38.0 °F 30.0 in NNE 18 mph 13 mph 81% 0.000 in 88.00 W/m2
11:59 44.0 °F 38.0 °F 30.0 in East 23 mph 17 mph 80% 0.000 in 81.00 W/m2
12:04 44.0 °F 38.0 °F 30.0 in ENE 12 mph 23 mph 81% 0.000 in 95.00 W/m2
12:09 44.0 °F 38.0 °F 30.0 in NE 18 mph 13 mph 80% 0.000 in 95.00 W/m2
12:14 44.0 °F 38.0 °F 30.0 in NE 23 mph 17 mph 80% 0.000 in 83.00 W/m2
12:19 44.0 °F 38.0 °F 30.0 in NE 9 mph 23 mph 80% 0.000 in 95.00 W/m2
12:24 44.0 °F 38.0 °F 30.0 in NNE 18 mph 10 mph 80% 0.000 in 97.00 W/m2
12:29 44.0 °F 38.0 °F 30.0 in North 18 mph 17 mph 80% 0.000 in 84.00 W/m2
12:34 44.0 °F 38.0 °F 30.0 in ENE 9 mph 17 mph 80% 0.000 in 102.00 W/m2
12:39 44.0 °F 38.0 °F 30.0 in ENE 11 mph 9 mph 80% 0.000 in 98.00 W/m2
12:44 44.0 °F 38.0 °F 30.0 in North 25 mph 12 mph 80% 0.000 in 98.00 W/m2
12:49 44.0 °F 38.0 °F 29.9 in NNE 21 mph 25 mph 80% 0.000 in 90.00 W/m2
12:54 44.0 °F 38.0 °F 30.0 in East 16 mph 13 mph 80% 0.000 in 83.00 W/m2
12:59 44.0 °F 38.0 °F 29.9 in NNE 7 mph 16 mph 80% 0.000 in 86.00 W/m2
13:04 44.0 °F 38.0 °F 29.9 in NNE 16 mph 10 mph 80% 0.000 in 84.00 W/m2
13:09 44.0 °F 38.0 °F 29.9 in NNE 16 mph 16 mph 80% 0.000 in 70.00 W/m2
13:14 44.0 °F 38.0 °F 29.9 in NNE 18 mph 16 mph 80% 0.000 in 67.00 W/m2
13:19 44.0 °F 38.0 °F 29.9 in ENE 9 mph 17 mph 81% 0.000 in 88.00 W/m2
13:24 44.0 °F 39.0 °F 29.9 in NNE 13 mph 9 mph 82% 0.000 in 49.00 W/m2
13:29 44.0 °F 39.0 °F 29.9 in NE 16 mph 16 mph 83% 0.010 in 40.00 W/m2
13:34 43.0 °F 39.0 °F 29.9 in NNE 18 mph 13 mph 83% 0.010 in 39.00 W/m2
13:39 43.0 °F 39.0 °F 29.9 in NNE 21 mph 17 mph 84% 0.010 in 40.00 W/m2
13:44 43.0 °F 39.0 °F 29.9 in NNE 20 mph 21 mph 84% 0.010 in 53.00 W/m2
13:49 43.0 °F 39.0 °F 29.9 in ENE 18 mph 20 mph 85% 0.010 in 56.00 W/m2
13:54 43.0 °F 39.0 °F 29.9 in NE 14 mph 17 mph 86% 0.010 in 53.00 W/m2
13:59 43.0 °F 39.0 °F 29.9 in NNE 13 mph 14 mph 86% 0.020 in 56.00 W/m2
14:04 42.0 °F 39.0 °F 29.9 in NNE 7 mph 10 mph 87% 0.030 in 53.00 W/m2
14:09 42.0 °F 39.0 °F 29.9 in ENE 16 mph 7 mph 87% 0.030 in 39.00 W/m2
14:14 42.0 °F 39.0 °F 29.9 in ESE 11 mph 16 mph 88% 0.030 in 39.00 W/m2
14:19 42.0 °F 39.0 °F 29.9 in ESE 6 mph 10 mph 88% 0.040 in 30.00 W/m2
14:24 42.0 °F 39.0 °F 29.9 in East 11 mph 6 mph 89% 0.040 in 33.00 W/m2
14:29 42.0 °F 39.0 °F 29.9 in ENE 18 mph 10 mph 89% 0.050 in 33.00 W/m2
14:34 42.0 °F 39.0 °F 29.9 in NNE 18 mph 17 mph 89% 0.050 in 30.00 W/m2
14:39 41.0 °F 38.0 °F 29.9 in NNE 9 mph 17 mph 89% 0.060 in 30.00 W/m2
14:44 41.0 °F 38.0 °F 29.9 in NNE 16 mph 16 mph 89% 0.060 in 30.00 W/m2
14:49 41.0 °F 38.0 °F 29.9 in NNE 20 mph 20 mph 89% 0.060 in 21.00 W/m2
14:54 41.0 °F 38.0 °F 29.9 in NNE 16 mph 20 mph 89% 0.070 in 19.00 W/m2
14:59 41.0 °F 38.0 °F 29.9 in ENE 7 mph 16 mph 89% 0.070 in 19.00 W/m2
15:04 41.0 °F 38.0 °F 29.9 in NNE 21 mph 11 mph 89% 0.060 in 14.00 W/m2
15:09 41.0 °F 38.0 °F 29.9 in NE 20 mph 21 mph 89% 0.050 in 14.00 W/m2
15:14 41.0 °F 38.0 °F 29.9 in NE 18 mph 11 mph 89% 0.050 in 11.00 W/m2
15:19 40.0 °F 37.0 °F 29.9 in North 39 mph 18 mph 89% 0.050 in 12.00 W/m2
15:24 40.0 °F 37.0 °F 29.9 in NNE 20 mph 39 mph 89% 0.050 in 12.00 W/m2
15:29 40.0 °F 37.0 °F 29.9 in NNE 21 mph 21 mph 89% 0.050 in 14.00 W/m2
15:34 40.0 °F 37.0 °F 29.9 in NE 27 mph 21 mph 89% 0.040 in 14.00 W/m2
15:39 40.0 °F 37.0 °F 29.9 in NNE 21 mph 26 mph 89% 0.040 in 14.00 W/m2
15:44 39.0 °F 36.0 °F 29.9 in North 20 mph 13 mph 89% 0.040 in 14.00 W/m2
15:49 39.0 °F 36.0 °F 29.9 in NE 20 mph 20 mph 89% 0.040 in 14.00 W/m2
15:54 39.0 °F 36.0 °F 29.9 in NE 27 mph 17 mph 89% 0.050 in 12.00 W/m2
15:59 39.0 °F 36.0 °F 29.9 in NE 25 mph 26 mph 89% 0.040 in 9.00 W/m2
16:04 39.0 °F 36.0 °F 29.9 in NNE 23 mph 25 mph 89% 0.050 in 9.00 W/m2
16:09 39.0 °F 36.0 °F 29.9 in ENE 23 mph 23 mph 89% 0.050 in 5.00 W/m2
16:14 39.0 °F 36.0 °F 29.9 in NE 28 mph 12 mph 89% 0.050 in 5.00 W/m2
16:19 39.0 °F 36.0 °F 29.9 in NNE 9 mph 28 mph 89% 0.060 in 5.00 W/m2
16:24 39.0 °F 36.0 °F 29.9 in NNE 23 mph 13 mph 90% 0.060 in 7.00 W/m2
16:29 39.0 °F 36.0 °F 29.9 in NE 13 mph 23 mph 90% 0.070 in 5.00 W/m2
16:34 39.0 °F 36.0 °F 29.9 in NE 23 mph 13 mph 90% 0.070 in 0.00 W/m2
16:39 39.0 °F 36.0 °F 29.9 in NNE 13 mph 23 mph 90% 0.070 in 0.00 W/m2
16:44 39.0 °F 36.0 °F 29.9 in North 13 mph 13 mph 90% 0.070 in 0.00 W/m2
16:49 39.0 °F 36.0 °F 29.9 in ESE 21 mph 10 mph 90% 0.080 in 0.00 W/m2
16:54 39.0 °F 36.0 °F 29.9 in ENE 11 mph 21 mph 90% 0.080 in 0.00 W/m2
16:59 39.0 °F 36.0 °F 29.9 in NNE 7 mph 10 mph 90% 0.090 in 0.00 W/m2
17:04 39.0 °F 36.0 °F 29.9 in North 11 mph 6 mph 90% 0.080 in 0.00 W/m2
17:09 39.0 °F 36.0 °F 29.9 in NNE 18 mph 10 mph 91% 0.090 in 0.00 W/m2
17:14 39.0 °F 36.0 °F 29.9 in East 11 mph 17 mph 91% 0.100 in 0.00 W/m2
17:19 39.0 °F 36.0 °F 29.9 in NNW 9 mph 10 mph 91% 0.100 in 0.00 W/m2
17:24 39.0 °F 36.0 °F 29.9 in NE 13 mph 9 mph 91% 0.100 in 0.00 W/m2
17:29 39.0 °F 36.0 °F 29.9 in ENE 18 mph 13 mph 91% 0.110 in 0.00 W/m2
17:34 39.0 °F 36.0 °F 29.9 in NNE 7 mph 17 mph 91% 0.100 in 0.00 W/m2
17:39 39.0 °F 36.0 °F 29.9 in NNE 25 mph 17 mph 91% 0.100 in 0.00 W/m2
17:44 39.0 °F 36.0 °F 29.9 in North 16 mph 25 mph 91% 0.100 in 0.00 W/m2
17:49 39.0 °F 36.0 °F 29.9 in ENE 18 mph 16 mph 91% 0.100 in 0.00 W/m2
17:54 39.0 °F 36.0 °F 29.9 in NNE 23 mph 17 mph 91% 0.100 in 0.00 W/m2
17:59 39.0 °F 36.0 °F 29.9 in NNE 16 mph 23 mph 91% 0.100 in 0.00 W/m2
18:04 39.0 °F 37.0 °F 29.9 in NNE 14 mph 16 mph 91% 0.100 in 0.00 W/m2
18:09 39.0 °F 37.0 °F 29.9 in North 13 mph 14 mph 91% 0.100 in 0.00 W/m2
18:14 39.0 °F 37.0 °F 29.9 in NE 16 mph 13 mph 91% 0.100 in 0.00 W/m2
18:19 39.0 °F 37.0 °F 29.9 in NE 23 mph 16 mph 91% 0.090 in 0.00 W/m2
18:24 40.0 °F 37.0 °F 29.9 in NE 20 mph 23 mph 91% 0.090 in 0.00 W/m2
18:29 40.0 °F 37.0 °F 29.9 in NE 27 mph 28 mph 91% 0.080 in 0.00 W/m2
18:34 40.0 °F 37.0 °F 29.9 in North 27 mph 26 mph 91% 0.070 in 0.00 W/m2
18:39 40.0 °F 38.0 °F 29.9 in NNE 33 mph 26 mph 92% 0.070 in 0.00 W/m2
18:44 40.0 °F 38.0 °F 29.9 in NNE 24 mph 33 mph 92% 0.060 in 0.00 W/m2
18:49 40.0 °F 38.0 °F 29.9 in NNE 27 mph 23 mph 92% 0.050 in 0.00 W/m2
18:54 40.0 °F 38.0 °F 29.9 in NNE 25 mph 26 mph 91% 0.050 in 0.00 W/m2
18:59 40.0 °F 38.0 °F 29.9 in NE 20 mph 25 mph 91% 0.060 in 0.00 W/m2
19:04 40.0 °F 37.0 °F 29.9 in NE 18 mph 10 mph 91% 0.060 in 0.00 W/m2
19:09 40.0 °F 37.0 °F 29.9 in ENE 13 mph 17 mph 91% 0.070 in 0.00 W/m2
19:14 40.0 °F 37.0 °F 29.9 in NE 16 mph 13 mph 91% 0.070 in 0.00 W/m2
19:19 40.0 °F 37.0 °F 29.9 in ENE 21 mph 16 mph 91% 0.070 in 0.00 W/m2
19:24 40.0 °F 37.0 °F 29.9 in NNE 20 mph 21 mph 91% 0.070 in 0.00 W/m2
19:29 39.0 °F 37.0 °F 29.9 in North 16 mph 20 mph 91% 0.080 in 0.00 W/m2
19:34 39.0 °F 37.0 °F 29.9 in NNE 16 mph 16 mph 91% 0.090 in 0.00 W/m2
19:39 39.0 °F 37.0 °F 29.9 in NNE 20 mph 16 mph 91% 0.100 in 0.00 W/m2
19:44 39.0 °F 37.0 °F 29.9 in NE 20 mph 20 mph 91% 0.110 in 0.00 W/m2
19:49 39.0 °F 37.0 °F 29.9 in North 13 mph 16 mph 91% 0.110 in 0.00 W/m2
19:54 39.0 °F 37.0 °F 29.9 in North 13 mph 13 mph 91% 0.110 in 0.00 W/m2
19:59 39.0 °F 37.0 °F 29.9 in North 16 mph 13 mph 91% 0.100 in 0.00 W/m2
20:04 40.0 °F 37.0 °F 29.9 in North 7 mph 16 mph 91% 0.100 in 0.00 W/m2
20:09 40.0 °F 37.0 °F 29.9 in North 2 mph 7 mph 92% 0.110 in 0.00 W/m2
20:14 40.0 °F 38.0 °F 29.9 in ENE 2 mph 2 mph 92% 0.120 in 0.00 W/m2
20:19 40.0 °F 38.0 °F 29.9 in ENE 2 mph 2 mph 92% 0.120 in 0.00 W/m2
20:24 40.0 °F 38.0 °F 29.9 in Calm   2 mph 92% 0.120 in 0.00 W/m2
20:29 40.0 °F 38.0 °F 29.9 in NNE 6 mph 1 mph 92% 0.120 in 0.00 W/m2
20:34 40.0 °F 38.0 °F 29.9 in North 6 mph 6 mph 92% 0.120 in 0.00 W/m2
20:39 40.0 °F 38.0 °F 29.9 in NNE 11 mph 6 mph 92% 0.120 in 0.00 W/m2
20:44 40.0 °F 38.0 °F 29.9 in North 7 mph 10 mph 92% 0.120 in 0.00 W/m2
20:49 40.0 °F 38.0 °F 29.9 in SSE 2 mph 7 mph 92% 0.110 in 0.00 W/m2
20:54 40.0 °F 38.0 °F 29.9 in ENE 2 mph   92% 0.110 in 0.00 W/m2
20:59 40.0 °F 38.0 °F 29.9 in NE 6 mph 2 mph 92% 0.100 in 0.00 W/m2
21:04 40.0 °F 38.0 °F 29.9 in Calm   6 mph 92% 0.090 in 0.00 W/m2
21:09 40.0 °F 38.0 °F 29.9 in North 6 mph 3 mph 92% 0.080 in 0.00 W/m2
21:14 40.0 °F 39.0 °F 29.9 in NNW 6 mph 6 mph 93% 0.070 in 0.00 W/m2
21:19 41.0 °F 39.0 °F 29.9 in North 9 mph 6 mph 93% 0.060 in 0.00 W/m2
21:24 41.0 °F 39.0 °F 29.9 in NNE 9 mph 9 mph 93% 0.060 in 0.00 W/m2
21:29 41.0 °F 39.0 °F 29.9 in NNE 9 mph 9 mph 93% 0.060 in 0.00 W/m2
21:34 41.0 °F 39.0 °F 29.9 in North 7 mph 9 mph 93% 0.060 in 0.00 W/m2
21:39 41.0 °F 39.0 °F 29.9 in NE 13 mph 7 mph 93% 0.060 in 0.00 W/m2
21:44 41.0 °F 39.0 °F 29.9 in NNW 23 mph 16 mph 93% 0.060 in 0.00 W/m2
21:49 41.0 °F 39.0 °F 29.9 in NE 9 mph 23 mph 93% 0.080 in 0.00 W/m2
21:54 41.0 °F 39.0 °F 29.9 in NNW 13 mph 9 mph 93% 0.090 in 0.00 W/m2
21:58 41.0 °F 40.0 °F 29.9 in North 5 mph 13 mph 93% 0.110 in 0.00 W/m2
22:04 42.0 °F 40.0 °F 29.9 in NNE 9 mph 6 mph 93% 0.130 in 0.00 W/m2
22:09 42.0 °F 40.0 °F 29.9 in East 6 mph 9 mph 93% 0.140 in 0.00 W/m2
22:14 42.0 °F 40.0 °F 29.9 in East 6 mph 6 mph 93% 0.140 in 0.00 W/m2
22:19 42.0 °F 40.0 °F 29.9 in NNE 18 mph 7 mph 93% 0.150 in 0.00 W/m2
22:24 42.0 °F 40.0 °F 29.9 in NNE 13 mph 17 mph 93% 0.140 in 0.00 W/m2
22:29 42.0 °F 40.0 °F 29.9 in NE 21 mph 13 mph 93% 0.140 in 0.00 W/m2
22:34 42.0 °F 40.0 °F 29.9 in East 16 mph 21 mph 93% 0.130 in 0.00 W/m2
22:39 42.0 °F 41.0 °F 29.9 in NNW 9 mph 16 mph 93% 0.130 in 0.00 W/m2
22:44 42.0 °F 41.0 °F 29.9 in North 18 mph 13 mph 93% 0.120 in 0.00 W/m2
22:49 43.0 °F 41.0 °F 29.9 in North 20 mph 17 mph 93% 0.100 in 0.00 W/m2
22:54 43.0 °F 41.0 °F 29.9 in NNE 20 mph 20 mph 93% 0.090 in 0.00 W/m2
22:59 43.0 °F 41.0 °F 29.8 in NE 20 mph 20 mph 93% 0.080 in 0.00 W/m2
23:04 43.0 °F 41.0 °F 29.8 in NE 18 mph 20 mph 93% 0.060 in 0.00 W/m2
23:09 43.0 °F 41.0 °F 29.8 in North 23 mph 19 mph 93% 0.050 in 0.00 W/m2
23:14 43.0 °F 41.0 °F 29.8 in NNE 20 mph 23 mph 93% 0.050 in 0.00 W/m2
23:19 43.0 °F 40.0 °F 29.9 in NNE 16 mph 17 mph 92% 0.040 in 0.00 W/m2
23:24 42.0 °F 40.0 °F 29.9 in North 13 mph 16 mph 92% 0.030 in 0.00 W/m2
23:29 42.0 °F 40.0 °F 29.9 in NNE 18 mph 13 mph 92% 0.040 in 0.00 W/m2
23:34 42.0 °F 40.0 °F 29.9 in North 20 mph 17 mph 92% 0.040 in 0.00 W/m2
23:39 42.0 °F 39.0 °F 29.9 in North 20 mph 20 mph 91% 0.060 in 0.00 W/m2
23:44 42.0 °F 39.0 °F 29.9 in NNE 11 mph 7 mph 91% 0.070 in 0.00 W/m2
23:49 41.0 °F 39.0 °F 29.9 in NNE 25 mph 25 mph 91% 0.080 in 0.00 W/m2
23:54 41.0 °F 39.0 °F 29.9 in NE 18 mph 17 mph 91% 0.080 in 0.00 W/m2
23:59 41.0 °F 39.0 °F 29.9 in North 16 mph 17 mph 91% 0.090 in 0.00 W/m2
El Dorado Weather
Compliments of Weather Underground - 4 mb